GW2166 Weather Reports


Display with metric or nautical units.
time (UTC)temp
F
wind
direction
speed
MPH
gust
MPH
rain 1hr
in
rain 24hr
in
rain mn
in
humidity
%
barometer
mb
20260904040408 73 166 1.0 3.0 0.00 0.00 0.00 88 1011.7
20260904035910 73 166 1.0 2.0 0.00 0.00 0.00 88 1011.6
20260904035409 73 166 1.0 1.0 0.00 0.00 0.00 88 1011.6
20260904034909 74 166 0.0 1.0 0.00 0.00 0.00 87 1011.7
20260904033909 74 166 0.0 0.0 0.00 0.00 0.00 86 1011.7
20260904033409 74 166 0.0 1.0 0.00 0.00 0.00 86 1011.7
20260904032908 74 166 0.0 1.0 0.00 0.00 0.00 86 1011.7
20260904031908 74 166 0.0 1.0 0.00 0.00 0.00 86 1011.7
20260904031408 74 166 0.0 1.0 0.00 0.00 0.00 85 1011.6
20260904030908 75 166 0.0 2.0 0.00 0.00 0.00 85 1011.6
20260904030408 75 166 1.0 2.0 0.00 0.00 0.00 85 1011.7
20260904025908 75 166 0.0 1.0 0.00 0.00 0.00 84 1011.6
20260904025408 75 166 0.0 1.0 0.00 0.00 0.00 84 1011.4
20260904024908 76 166 0.0 2.0 0.00 0.00 0.00 84 1011.4
20260904024408 76 166 0.0 2.0 0.00 0.00 0.00 83 1011.4
20260904023907 75 166 1.0 2.0 0.00 0.00 0.00 83 1011.3
20260904023407 76 166 0.0 3.0 0.00 0.00 0.00 83 1011.3
20260904022408 76 166 0.0 2.0 0.00 0.00 0.00 81 1011.1
20260904021908 77 166 1.0 2.0 0.00 0.00 0.00 80 1011.1
20260904021407 77 166 0.0 1.0 0.00 0.00 0.00 80 1011.1
20260904020907 78 166 0.0 2.0 0.00 0.00 0.00 80 1011.0
20260904015906 78 166 1.0 3.0 0.00 0.00 0.00 78 1010.8
20260904015406 78 164 1.0 4.0 0.00 0.00 0.00 77 1010.6
20260904014907 79 144 2.0 4.0 0.00 0.00 0.00 76 1010.5
20260904014407 78 176 1.0 3.0 0.00 0.00 0.00 77 1010.4
20260904013907 78 176 1.0 3.0 0.00 0.00 0.00 78 1010.4
20260904013407 79 176 1.0 3.0 0.00 0.00 0.00 77 1010.3
20260904012906 79 176 2.0 3.0 0.00 0.00 0.00 77 1010.3
20260904012406 79 176 1.0 3.0 0.00 0.00 0.00 77 1010.3
20260904011405 80 176 1.0 3.0 0.00 0.00 0.00 76 1010.2
20260904010406 80 178 2.0 3.0 0.00 0.00 0.00 76 1010.2
20260904005405 81 202 1.0 2.0 0.00 0.00 0.00 75 1010.2
20260904004905 82 202 0.0 2.0 0.00 0.00 0.00 73 1010.1
20260904004405 83 202 0.0 2.0 0.00 0.00 0.00 72 1010.1
20260904003905 84 202 0.0 2.0 0.00 0.00 0.00 69 1010.0
20260904003404 85 202 1.0 3.0 0.00 0.00 0.00 68 1010.0
20260904002905 86 202 1.0 4.0 0.00 0.00 0.00 66 1010.0
20260904002405 87 154 1.0 4.0 0.00 0.00 0.00 64 1010.0
20260904001905 87 159 2.0 3.0 0.00 0.00 0.00 63 1010.0
20260904001404 88 188 1.0 3.0 0.00 0.00 0.00 62 1009.9
20260904000904 90 173 1.0 5.0 0.00 0.00 0.00 57 1009.9
20260903235904 92 165 2.0 7.0 0.00 0.00 0.00 53 1009.9
20260903235402 93 169 3.0 7.0 0.00 0.00 0.00 52 1009.9
20260903234404 94 193 2.0 7.0 0.00 0.00 0.00 50 1009.9
20260903233904 94 161 2.0 7.0 0.00 0.00 0.00 49 1009.8
20260903233403 95 130 4.0 10.0 0.00 0.00 0.00 47 1009.9
20260903232903 95 182 5.0 10.0 0.00 0.00 0.00 47 1009.8
20260903232403 95 162 5.0 10.0 0.00 0.00 0.00 46 1009.7
20260903231903 95 147 3.0 14.0 0.00 0.00 0.00 46 1009.8
20260903231402 96 148 7.0 14.0 0.00 0.00 0.00 45 1009.8
20260903230902 96 217 6.0 18.0 0.00 0.00 0.00 44 1009.8
20260903230402 96 203 7.0 18.0 0.00 0.00 0.00 44 1009.8
20260903225902 96 128 8.0 13.0 0.00 0.00 0.00 45 1009.8
20260903225403 96 148 4.0 12.0 0.00 0.00 0.00 45 1009.7
20260903224901 96 151 6.0 13.0 0.00 0.00 0.00 44 1009.7
20260903224402 97 142 6.0 14.0 0.00 0.00 0.00 44 1009.7
20260903223402 97 159 8.0 17.0 0.00 0.00 0.00 43 1009.7
20260903222402 97 199 7.0 14.0 0.00 0.00 0.00 43 1009.8
20260903221901 97 212 6.0 16.0 0.00 0.00 0.00 44 1009.9
20260903221402 97 159 7.0 16.0 0.00 0.00 0.00 44 1009.8
20260903220902 97 166 8.0 15.0 0.00 0.00 0.00 43 1009.8
20260903220402 98 196 7.0 14.0 0.00 0.00 0.00 43 1009.8
20260903215902 97 182 9.0 13.0 0.00 0.00 0.00 44 1009.9
20260903214900 98 135 5.0 15.0 0.00 0.00 0.00 44 1010.0
20260903213900 98 213 7.0 15.0 0.00 0.00 0.00 42 1010.1
20260903213400 98 209 6.0 15.0 0.00 0.00 0.00 43 1010.2
20260903212900 98 231 5.0 13.0 0.00 0.00 0.00 45 1010.3
20260903212401 98 182 6.0 14.0 0.00 0.00 0.00 43 1010.4
20260903211900 98 224 6.0 14.0 0.00 0.00 0.00 43 1010.5
20260903211400 98 113 6.0 15.0 0.00 0.00 0.00 44 1010.5
20260903210400 98 207 6.0 16.0 0.00 0.00 0.00 45 1010.6
20260903205859 98 152 8.0 16.0 0.00 0.00 0.00 43 1010.5
20260903204859 98 206 11.0 18.0 0.00 0.00 0.00 43 1010.8
20260903204401 98 203 4.0 16.0 0.00 0.00 0.00 45 1010.8
20260903203859 98 159 10.0 16.0 0.00 0.00 0.00 43 1010.9
20260903202358 98 228 4.0 15.0 0.00 0.00 0.00 47 1010.9
20260903201858 97 183 5.0 16.0 0.00 0.00 0.00 45 1011.1
20260903201358 97 144 8.0 17.0 0.00 0.00 0.00 46 1011.0
20260903200858 97 190 7.0 17.0 0.00 0.00 0.00 46 1011.1
20260903200358 98 159 9.0 18.0 0.00 0.00 0.00 45 1011.1
20260903195858 98 128 6.0 18.0 0.00 0.00 0.00 47 1011.1
20260903195358 98 223 5.0 15.0 0.00 0.00 0.00 47 1011.1
20260903194858 98 202 6.0 16.0 0.00 0.00 0.00 47 1011.2
20260903194358 97 210 6.0 16.0 0.00 0.00 0.00 47 1011.2
20260903193858 97 154 6.0 16.0 0.00 0.00 0.00 48 1011.2
20260903193358 97 133 6.0 20.0 0.00 0.00 0.00 48 1011.3
20260903192858 97 200 12.0 20.0 0.00 0.00 0.00 48 1011.3
20260903192357 97 185 10.0 15.0 0.00 0.00 0.00 46 1011.4
20260903191857 96 164 7.0 14.0 0.00 0.00 0.00 48 1011.4
20260903191357 96 175 9.0 21.0 0.00 0.00 0.00 49 1011.4
20260903190857 96 179 9.0 21.0 0.00 0.00 0.00 48 1011.6
20260903190357 96 227 9.0 21.0 0.00 0.00 0.00 49 1011.6
20260903185857 97 152 7.0 17.0 0.00 0.00 0.00 47 1011.6
20260903185357 96 186 9.0 18.0 0.00 0.00 0.00 50 1011.7
20260903184356 96 138 11.0 19.0 0.00 0.00 0.00 49 1011.8
20260903183856 96 227 7.0 19.0 0.00 0.00 0.00 50 1011.9
20260903183356 96 192 5.0 16.0 0.00 0.00 0.00 51 1012.0
20260903182857 96 228 7.0 18.0 0.00 0.00 0.00 50 1012.0
20260903182358 95 227 11.0 18.0 0.00 0.00 0.00 50 1012.1
20260903180856 94 179 10.0 18.0 0.00 0.00 0.00 51 1012.3
20260903180355 94 178 9.0 17.0 0.00 0.00 0.00 52 1012.4
20260903175855 94 210 9.0 17.0 0.00 0.00 0.00 53 1012.4
20260903175355 94 130 10.0 16.0 0.00 0.00 0.00 53 1012.4
20260903174855 95 228 7.0 15.0 0.00 0.00 0.00 53 1012.4
20260903172855 94 173 6.0 15.0 0.00 0.00 0.00 53 1012.8
20260903172355 94 196 6.0 14.0 0.00 0.00 0.00 53 1012.8
20260903171354 93 213 6.0 16.0 0.00 0.00 0.00 55 1013.0
20260903170855 93 161 6.0 16.0 0.00 0.00 0.00 56 1013.0
20260903170354 93 180 10.0 16.0 0.00 0.00 0.00 54 1013.1
20260903165854 93 196 7.0 16.0 0.00 0.00 0.00 53 1013.1
20260903164854 93 202 7.0 18.0 0.00 0.00 0.00 54 1013.2
20260903164353 92 203 6.0 18.0 0.00 0.00 0.00 56 1013.1
20260903163854 92 233 6.0 17.0 0.00 0.00 0.00 56 1013.0
20260903163354 92 200 8.0 17.0 0.00 0.00 0.00 57 1013.2
20260903162853 92 180 6.0 17.0 0.00 0.00 0.00 56 1013.1
20260903161853 91 176 8.0 18.0 0.00 0.00 0.00 57 1013.3
20260903161353 91 179 9.0 14.0 0.00 0.00 0.00 58 1013.3
20260903160353 90 223 8.0 17.0 0.00 0.00 0.00 57 1013.3
20260903155352 90 190 7.0 18.0 0.00 0.00 0.00 59 1013.4
20260903154852 89 223 7.0 18.0 0.00 0.00 0.00 60 1013.4
20260903154352 89 248 10.0 18.0 0.00 0.00 0.00 59 1013.4
20260903153352 89 200 10.0 18.0 0.00 0.00 0.00 62 1013.4
20260903151352 87 179 6.0 15.0 0.00 0.00 0.00 65 1013.4
20260903150851 88 213 7.0 14.0 0.00 0.00 0.00 68 1013.4
20260903150351 87 193 6.0 14.0 0.00 0.00 0.00 67 1013.3
20260903145852 87 159 8.0 13.0 0.00 0.00 0.00 67 1013.5
20260903145351 87 235 3.0 14.0 0.00 0.00 0.00 67 1013.5
20260903144851 86 144 7.0 18.0 0.00 0.00 0.00 68 1013.6
20260903143850 85 206 5.0 12.0 0.00 0.00 0.00 69 1013.6
20260903143352 85 179 6.0 16.0 0.00 0.00 0.00 70 1013.5
20260903142850 85 195 9.0 16.0 0.00 0.00 0.00 70 1013.5
20260903142350 84 185 5.0 15.0 0.00 0.00 0.00 72 1013.6
20260903141850 83 193 6.0 16.0 0.00 0.00 0.00 71 1013.6
20260903141351 83 178 8.0 17.0 0.00 0.00 0.00 72 1013.8
20260903140851 83 213 6.0 19.0 0.00 0.00 0.00 73 1013.8
20260903140350 83 210 7.0 19.0 0.00 0.00 0.00 72 1013.8
20260903135850 83 180 6.0 14.0 0.00 0.00 0.00 72 1013.7
20260903135349 82 193 6.0 14.0 0.00 0.00 0.00 73 1013.7
20260903134849 82 224 4.0 14.0 0.00 0.00 0.00 75 1013.8
20260903134349 81 190 6.0 18.0 0.00 0.00 0.00 75 1013.7
20260903133849 81 226 6.0 18.0 0.00 0.00 0.00 74 1013.7
20260903133350 80 190 6.0 15.0 0.00 0.00 0.00 76 1013.7
20260903132849 80 197 5.0 16.0 0.00 0.00 0.00 77 1013.7
20260903131849 79 178 6.0 14.0 0.00 0.00 0.00 77 1013.6
20260903131349 79 161 6.0 14.0 0.00 0.00 0.00 78 1013.5
20260903130849 78 199 3.0 7.0 0.00 0.00 0.00 81 1013.4
20260903130349 77 164 2.0 7.0 0.00 0.00 0.00 82 1013.5
20260903125349 76 172 4.0 6.0 0.00 0.00 0.00 84 1013.5
20260903124848 75 166 3.0 5.0 0.00 0.00 0.00 86 1013.4
20260903124348 74 166 3.0 5.0 0.00 0.00 0.00 87 1013.3
20260903123348 72 183 2.0 6.0 0.00 0.00 0.00 89 1013.3
20260903122848 71 161 2.0 6.0 0.00 0.00 0.00 90 1013.3
20260903122347 70 180 2.0 4.0 0.00 0.00 0.00 92 1013.3
20260903121848 69 165 2.0 3.0 0.00 0.00 0.00 93 1013.2
20260903121347 69 165 2.0 4.0 0.00 0.00 0.00 92 1013.2
20260903120848 69 165 1.0 4.0 0.00 0.00 0.00 92 1013.2
20260903115847 69 173 1.0 3.0 0.00 0.00 0.00 91 1013.1
20260903115346 70 161 2.0 3.0 0.00 0.00 0.00 91 1013.0
20260903114847 70 169 1.0 3.0 0.00 0.00 0.00 90 1013.0
20260903114347 71 169 2.0 4.0 0.00 0.00 0.00 89 1012.9
20260903113846 71 171 2.0 4.0 0.00 0.00 0.00 89 1012.8
20260903113347 71 185 2.0 4.0 0.00 0.00 0.00 89 1012.9
20260903112847 71 197 2.0 6.0 0.00 0.00 0.00 89 1012.9
20260903112346 71 200 2.0 6.0 0.00 0.00 0.00 89 1012.8
20260903111846 70 204 2.0 4.0 0.00 0.00 0.00 90 1012.8
20260903110846 70 178 2.0 4.0 0.00 0.00 0.00 90 1012.9
20260903110346 71 165 2.0 5.0 0.00 0.00 0.00 90 1012.9
20260903105846 71 195 2.0 5.0 0.00 0.00 0.00 89 1012.8
20260903104845 71 209 2.0 5.0 0.00 0.00 0.00 88 1012.8
20260903104345 71 206 2.0 7.0 0.00 0.00 0.00 89 1012.7
20260903103845 71 166 3.0 7.0 0.00 0.00 0.00 89 1012.8
20260903103345 70 199 4.0 7.0 0.00 0.00 0.00 91 1012.6
20260903102845 69 175 3.0 5.0 0.00 0.00 0.00 93 1012.7
20260903102345 69 192 2.0 4.0 0.00 0.00 0.00 93 1012.6
20260903101844 68 226 2.0 4.0 0.00 0.00 0.00 93 1012.6
20260903100344 69 185 2.0 4.0 0.00 0.00 0.00 93 1012.6
20260903095844 68 182 1.0 4.0 0.00 0.00 0.00 93 1012.6
20260903095344 68 179 2.0 3.0 0.00 0.00 0.00 94 1012.6
20260903094344 68 179 2.0 3.0 0.00 0.00 0.00 94 1012.6
20260903093843 68 172 2.0 4.0 0.00 0.00 0.00 95 1012.6
20260903093343 67 171 2.0 5.0 0.00 0.00 0.00 95 1012.6
20260903092843 67 149 2.0 5.0 0.00 0.00 0.00 95 1012.5
20260903092344 67 171 2.0 3.0 0.00 0.00 0.00 95 1012.6
20260903091844 67 171 1.0 2.0 0.00 0.00 0.00 95 1012.5
20260903091343 67 171 1.0 2.0 0.00 0.00 0.00 95 1012.5
20260903090843 67 171 0.0 1.0 0.00 0.00 0.00 95 1012.5
20260903090343 67 171 0.0 1.0 0.00 0.00 0.00 95 1012.5
20260903085843 67 171 0.0 2.0 0.00 0.00 0.00 95 1012.4
20260903085343 67 171 0.0 2.0 0.00 0.00 0.00 95 1012.4
20260903084843 67 171 0.0 1.0 0.00 0.00 0.00 95 1012.5
20260903084343 67 171 0.0 0.0 0.00 0.00 0.00 94 1012.5
20260903083842 67 171 0.0 0.0 0.00 0.00 0.00 94 1012.4
20260903082842 67 171 0.0 0.0 0.00 0.00 0.00 94 1012.4
20260903082342 67 171 0.0 0.0 0.00 0.00 0.00 94 1012.3
20260903081842 68 171 0.0 0.0 0.00 0.00 0.00 93 1012.4
20260903081341 68 171 0.0 1.0 0.00 0.00 0.00 93 1012.4
20260903080842 68 171 0.0 1.0 0.00 0.00 0.00 93 1012.3
20260903080342 68 171 0.0 0.0 0.00 0.00 0.00 93 1012.3
20260903075342 68 171 0.0 0.0 0.00 0.00 0.00 95 1012.3
20260903074841 68 171 0.0 0.0 0.00 0.00 0.00 94 1012.2
20260903074341 68 171 0.0 0.0 0.00 0.00 0.00 94 1012.3
20260903073841 68 171 0.0 4.0 0.00 0.00 0.00 94 1012.4
20260903073341 68 171 0.0 4.0 0.00 0.00 0.00 94 1012.3
20260903072841 68 171 1.0 3.0 0.00 0.00 0.00 94 1012.5
20260903072341 68 171 0.0 0.0 0.00 0.00 0.00 94 1012.2
20260903070840 68 171 0.0 0.0 0.00 0.00 0.00 94 1012.2
20260903070340 68 171 0.0 0.0 0.00 0.00 0.00 94 1012.2
20260903065839 68 171 0.0 0.0 0.00 0.00 0.00 94 1012.1
20260903065340 68 171 0.0 0.0 0.00 0.00 0.00 94 1012.1
20260903064840 68 171 0.0 0.0 0.00 0.00 0.00 94 1012.2
20260903064340 69 171 0.0 0.0 0.00 0.00 0.00 94 1012.1
20260903063839 69 171 0.0 0.0 0.00 0.00 0.00 93 1012.2
20260903063339 69 171 0.0 0.0 0.00 0.00 0.00 93 1012.2
20260903062839 69 171 0.0 0.0 0.00 0.00 0.00 93 1012.3
20260903062339 69 171 0.0 0.0 0.00 0.00 0.00 93 1012.2
20260903061839 69 171 0.0 0.0 0.00 0.00 0.00 93 1012.3
20260903061338 69 171 0.0 0.0 0.00 0.00 0.00 92 1012.3
20260903060839 69 171 0.0 0.0 0.00 0.00 0.00 92 1012.3
20260903060339 70 171 0.0 0.0 0.00 0.00 0.00 92 1012.3
20260903055839 70 171 0.0 1.0 0.00 0.00 0.00 92 1012.3
20260903055338 70 171 0.0 1.0 0.00 0.00 0.00 91 1012.3
20260903054838 70 171 0.0 1.0 0.00 0.00 0.00 91 1012.3
20260903054338 70 171 0.0 1.0 0.00 0.00 0.00 92 1012.3
20260903053338 70 171 0.0 1.0 0.00 0.00 0.00 92 1012.3
20260903052839 70 171 0.0 0.0 0.00 0.00 0.00 91 1012.2
20260903052338 70 171 0.0 1.0 0.00 0.00 0.00 91 1012.2
20260903051838 70 171 0.0 1.0 0.00 0.00 0.00 91 1012.3
20260903050838 71 171 0.0 1.0 0.00 0.00 0.00 90 1012.2
20260903050338 71 171 0.0 1.0 0.00 0.00 0.00 90 1012.2
20260903045337 71 171 0.0 0.0 0.00 0.00 0.00 90 1012.3
20260903044837 71 171 0.0 0.0 0.00 0.00 0.00 89 1012.2
20260903044337 71 171 0.0 0.0 0.00 0.00 0.00 89 1012.2
20260903043837 71 171 0.0 0.0 0.00 0.00 0.00 89 1012.2
20260903043336 71 171 0.0 0.0 0.00 0.00 0.00 89 1012.2
20260903042836 71 171 0.0 0.0 0.00 0.00 0.00 89 1012.3
20260903041836 72 171 0.0 0.0 0.00 0.00 0.00 89 1012.3
20260903040836 72 171 0.0 0.0 0.00 0.00 0.00 88 1012.3